Regional Weather Roundup
Issued by NWS

Home | Current Version | Previous Version | Graphics & Text | Print | Product List | Glossary On
Versions: 1 2 3 4 5 6 7 8 9 10 11 12 13 14 15 16 17 18 19 20 21 22 23 24 25 26 27 28 29 30 31 32 33 34 35 36 37 38 39 40 41 42 43 44 45 46 47 48 49 50
000
ASUS45 KSLC 301210
RWRUT

UTAH REGIONAL WEATHER ROUNDUP
NATIONAL WEATHER SERVICE SALT LAKE CITY UT
600 AM MDT THU JUL 30 2015

UTZ001>011-023>025-301300-

NORTHERN UTAH

CITY           SKY/WX    TMP DP  RH WIND       PRES   REMARKS
BRIGHAM CITY   CLEAR     54  34  47 CALM      30.28R
HILL AFB       CLEAR     58  31  35 E24G31    30.29R
LOGAN          CLEAR     47  36  65 CALM      30.32R
OGDEN          CLEAR     58  32  37 S8        30.27R
PROVO AIRPORT  CLEAR     54  36  50 SW3       30.30R
SALT LAKE CITY CLEAR     62  38  40 S5        30.25S
VERNAL         CLEAR     57  29  34 CALM      30.32R
WENDOVER       PTCLDY    61  36  39 SE8       30.27R
HEBER CITY     CLEAR     43  34  70 CALM      30.39S
WEST JORDAN    CLEAR     57  32  38 SW6       30.29R

$$

UTZ012>022-026-027-301300-

SOUTHERN/CENTRAL UTAH

CITY           SKY/WX    TMP DP  RH WIND       PRES   REMARKS
BLANDING       PTCLDY    58  46  64 N8        30.43S
BRYCE CANYON   MOCLDY    48  31  51 W8        30.47R
CEDAR CITY     MOCLDY    62  26  25 SE3       30.29S
DELTA          PTCLDY    57  28  32 NE3       30.27R
HANKSVILLE     MOCLDY    63  28  27 CALM      30.25R
MILFORD        MOCLDY    58  20  22 CALM      30.26R
MOAB/CYNLANDS  CLEAR     64  27  24 CALM      30.22R
PRICE          PTCLDY    58  16  19 CALM      30.33S
ST GEORGE      SUNNY     79  36  21 E10       30.10S
KANAB          PTCLDY    64  45  48 NE5       30.31R

$$

REGIONAL REPORTS     COLORADO/ARIZONA

CITY           SKY/WX    TMP DP  RH WIND       PRES   REMARKS
CRAIG, CO      CLEAR     38  29  70 CALM      30.42R
GRAND JUNCTION CLEAR     60  28  29 E5        30.27R
RIFLE          CLEAR     51  28  41 CALM      30.36R
MONTROSE       CLEAR     53  35  50 SE5       30.37R
CORTEZ         CLEAR     51  46  83 CALM      30.37R
PAGE, AZ       PTCLDY    72  55  55 S6        30.22R
GRAND CANYON   MOCLDY    55  46  71 E3        30.39R
KINGMAN        CLOUDY    76  57  51 SE8       30.13R
FLAGSTAFF      MOCLDY    53  50  89 CALM      30.40S

$$

REGIONAL REPORTS    NEVADA/IDAHO/WYOMING

CITY           SKY/WX    TMP DP  RH WIND       PRES   REMARKS
LAS VEGAS, NV  CLOUDY    87  51  28 W5        29.97R
ELY            PTCLDY    43  22  43 S7        30.38R
ELKO           PTCLDY    48  31  51 SE3       30.30R
POCATELLO, ID  CLEAR     45  40  82 N5        30.31S
BURLEY         CLEAR     48  44  86 NW3       30.26R
EVANSTON, WY   CLEAR     46  24  42 CALM      30.46R
ROCK SPRINGS   PTCLDY    50  20  30 W10       30.43R
KEMMERER       PTCLDY    41  30  65 N10       30.48R

$$



USA.gov is the U.S. government's official web portal to all federal, state and local government web resources and services.